Location: Maccacari
(45.1333°N, 11.1333°E)
Time: 08:26:22
(UTC+00:00)

Meteor 1-21 - Pass Details

Date: 18 September 2020
Orbit: 845 x 887 km, 81.2° (Epoch: 29 October)

Event Time Altitude Azimuth Distance (km) Brightness Sun altitude
Rises 18:13:43 0° 349° (NNW) 3,429 7.7 -10.2°
Reaches altitude 10° 18:16:09 10° 349° (N) 2,485 7.0 -10.6°
Maximum altitude 18:21:48 88° 260° (W) 853 4.2 -11.6°
Drops below altitude 10° 18:27:23 10° 172° (S) 2,460 6.4 -12.6°
Sets 18:29:47 0° 172° (S) 3,392 7.1 -13.0°
